Weather History for Annette Island, AK

Change the Weather History Date:

Monday, February 18, 2013

  Actual Average Record
Temperature  
Mean Temperature 39 °F 38 °F  
Max Temperature 42 °F 43 °F 55 °F (1958)
Min Temperature 36 °F 33 °F 8 °F (1986)
Degree Days  
Heating Degree Days 26 27  
Month to date heating degree days 442 489  
Since 1 July heating degree days 4265 4268  
Cooling Degree Days 0    
Month to date cooling degree days 0  
Year to date cooling degree days 0  
Moisture  
Dew Point 35 °F    
Average Humidity 0    
Maximum Humidity 0    
Minimum Humidity 0    
Precipitation  
Precipitation 0.67 in 0.25 in 3.87 in (1965)
Month to date precipitation 9.07 4.87  
Year to date precipitation 17.27 15.60  
Snow  
Snow 0.00 in 0.20 in 3.60 in (2002)
Month to date snowfall 0.0 4.5  
Since 1 July snowfall 11.9 23.8  
Snow Depth 0.00 in    
Sea Level Pressure  
Sea Level Pressure 29.76 in    
Wind  
Wind Speed 8 mph (ESE)    
Max Wind Speed 18 mph    
Max Gust Speed 23 mph    
Visibility 9 miles    
Events Rain    
T = Trace of Precipitation, MM = Missing Value Source: NWS Daily Summary

Daily Weather History Graph

Daily Weather History Graph

Search for Another Location

Airport:

Trip Planner

Search our weather history database for the weather conditions in past years. The results will help you decide how hot, cold, wet, or windy it might be!

Date:

Astronomy

Feb. 18, 2013 Rise Set
Actual Time 7:01 AM AKST 5:00 PM AKST
Civil Twilight 6:23 AM AKST 5:37 PM AKST
Nautical Twilight 5:41 AM AKST 6:19 PM AKST
Astronomical Twilight 4:59 AM AKST 7:01 PM AKST
Moon 10:20 AM AKST (2/18) 2:16 AM AKST (2/18)
Length of Visible Light 11h 13m
Length of Day
9h 58m
First Quarter, 60% of the Moon is Illuminated
Feb 18
First Quarter
Feb 25
Full
Mar 4
Last Quarter
Mar 11
New
Mar 19
First Quarter

Hourly Weather History & Observations

Time (AKST) Temp. Windchill Dew Point Humidity Pressure Visibility Wind Dir Wind Speed Gust Speed Precip Events Conditions
12:53 AM 37.0 °F 28.9 °F 34.0 °F 89% 29.81 in 7.0 mi SE 12.7 mph - 0.07 in Rain Rain
1:53 AM 36.0 °F 28.0 °F 34.0 °F 93% 29.80 in 6.0 mi ESE 11.5 mph 19.6 mph 0.10 in Rain Rain
3:34 AM 35.6 °F 27.5 °F 33.8 °F 93% 29.76 in 7.0 mi ESE 11.5 mph - 0.06 in Rain Light Rain
3:45 AM 35.6 °F 27.5 °F 33.8 °F 93% 29.76 in 6.0 mi SE 11.5 mph - 0.07 in Rain Rain
3:53 AM 36.0 °F 28.0 °F 34.0 °F 93% 29.76 in 7.0 mi SE 11.5 mph - 0.08 in Rain Rain
4:13 AM 35.6 °F 27.5 °F 33.8 °F 93% 29.75 in 8.0 mi ESE 11.5 mph - 0.03 in Rain Light Rain
4:53 AM 36.0 °F 27.5 °F 34.0 °F 93% 29.75 in 7.0 mi ESE 12.7 mph - 0.08 in Rain Light Rain
5:02 AM 35.6 °F 28.0 °F 33.8 °F 93% 29.74 in 8.0 mi ESE 10.4 mph - 0.01 in Rain Light Rain
5:53 AM 36.0 °F 28.5 °F 35.1 °F 97% 29.74 in 9.0 mi ESE 10.4 mph 18.4 mph 0.07 in Rain Light Rain
6:38 AM 37.4 °F 30.3 °F 35.6 °F 93% 29.72 in 8.0 mi ESE 10.4 mph - 0.04 in Rain Light Rain
6:53 AM 37.0 °F 29.8 °F 35.1 °F 93% 29.73 in 9.0 mi ESE 10.4 mph - 0.05 in Rain Light Rain
7:53 AM 37.0 °F 30.4 °F 35.1 °F 93% 29.72 in 7.0 mi ESE 9.2 mph - 0.04 in Rain Light Rain
8:53 AM 37.9 °F 32.1 °F 35.1 °F 89% 29.72 in 10.0 mi ESE 8.1 mph - 0.04 in Rain Light Rain
9:53 AM 39.0 °F 32.8 °F 36.0 °F 89% 29.71 in 10.0 mi ESE 9.2 mph - 0.02 in Rain Light Rain
10:53 AM 39.9 °F 33.9 °F 36.0 °F 86% 29.72 in 10.0 mi ESE 9.2 mph - 0.00 in Rain Light Rain
11:21 AM 39.2 °F 33.6 °F 37.4 °F 93% 29.71 in 10.0 mi ESE 8.1 mph - 0.01 in Rain Light Rain
11:40 AM 41.0 °F 37.1 °F 37.4 °F 87% 29.71 in 10.0 mi Variable 5.8 mph - 0.01 in Rain Light Rain
11:53 AM 41.0 °F 36.4 °F 36.0 °F 82% 29.72 in 10.0 mi SE 6.9 mph - 0.01 in Rain Light Rain
12:12 PM 41.0 °F 36.4 °F 35.6 °F 81% 29.72 in 10.0 mi ESE 6.9 mph - 0.00 in   Overcast
12:19 PM 41.0 °F 35.8 °F 35.6 °F 81% 29.72 in 10.0 mi ESE 8.1 mph - 0.00 in   Overcast
12:34 PM 41.0 °F 36.4 °F 35.6 °F 81% 29.72 in 10.0 mi ESE 6.9 mph - 0.00 in   Overcast
12:53 PM 42.1 °F 37.1 °F 37.0 °F 82% 29.73 in 10.0 mi ESE 8.1 mph - 0.00 in   Overcast
1:53 PM 42.1 °F 40.2 °F 36.0 °F 79% 29.73 in 10.0 mi Variable 3.5 mph - 0.00 in Rain Light Rain
2:44 PM 41.0 °F 39.0 °F 37.4 °F 87% 29.73 in 10.0 mi NNE 3.5 mph - 0.00 in Rain Light Rain
2:53 PM 41.0 °F - 37.0 °F 86% 29.74 in 10.0 mi Calm Calm - 0.00 in Rain Light Rain
3:37 PM 39.2 °F - 37.4 °F 93% 29.73 in 10.0 mi Calm Calm - 0.00 in Rain Light Rain
3:53 PM 39.9 °F - 36.0 °F 86% 29.75 in 10.0 mi Calm Calm - 0.00 in   Overcast
4:53 PM 39.0 °F - 36.0 °F 89% 29.76 in 10.0 mi Calm Calm - N/A   Overcast
5:53 PM 39.0 °F - 35.1 °F 86% 29.77 in 10.0 mi Calm Calm - N/A   Overcast
6:53 PM 36.0 °F - 35.1 °F 97% 29.78 in 10.0 mi Calm Calm - N/A   Overcast
7:53 PM 36.0 °F - 35.1 °F 97% 29.80 in 10.0 mi Calm Calm - N/A   Overcast
8:53 PM 37.0 °F - 36.0 °F 96% 29.81 in 10.0 mi Calm Calm - N/A   Overcast
9:53 PM 36.0 °F - 35.1 °F 97% 29.83 in 10.0 mi Calm Calm - N/A   Overcast
10:53 PM 35.1 °F - 34.0 °F 96% 29.85 in 10.0 mi Calm Calm - N/A   Overcast
11:12 PM 35.6 °F - 33.8 °F 93% 29.84 in 10.0 mi Calm Calm - N/A   Overcast
11:53 PM 34.0 °F - 33.1 °F 96% 29.85 in 10.0 mi Calm Calm - N/A   Overcast